Temp_Advection
nan nan nan nan nan nan nan nan nan nan nan nan nan nan nan nan nan nan nan nan nan nan nan nan nan nan nan nan nan nan nan nan nan nan nan nan nan nan nan nan nan nan nan nan nan nan nan
nan -1 -1 -0 -0 -0 -0 0 0 -0 0 0 0 0 0 -0 -0 0 0 0 0 0 0 0 0 0 0 -0 -1 0 0 0 -0 -0 0 0 -0 -0 -0 0 -0 -0 -0 -0 -1 -1 nan
nan -2 -2 -1 -1 -0 -0 -0 0 -0 -0 0 0 0 0 -0 -0 0 0 0 0 0 0 0 0 0 -0 -2 0 0 -0 0 0 -0 -0 0 0 -0 0 -0 -0 0 -0 -1 -0 -0 nan
nan -0 -2 -2 -2 -1 -0 -0 0 0 -0 -0 0 0 0 0 0 0 0 0 0 0 0 0 0 0 -0 -0 0 0 0 0 0 -0 -0 0 0 -0 -0 -0 -0 -0 0 -0 -0 -0 nan
nan -0 -0 -1 -2 -2 -1 -0 -0 -0 -0 -0 0 0 0 0 0 0 0 0 0 0 0 0 0 0 -0 -0 -0 -0 0 0 -0 -0 -0 0 -0 0 -0 0 0 0 -0 -0 -0 -0 nan
nan -0 -0 -0 -1 -2 -2 -1 -0 -0 -0 -0 0 0 0 0 0 0 0 0 0 0 0 -0 -0 -0 -1 -0 -0 -0 0 0 0 0 0 0 0 0 0 0 -0 -0 0 -0 -0 -0 nan
nan -0 -1 -1 -0 -1 -1 -2 -1 -0 -0 -0 0 0 0 0 0 0 0 0 -0 0 -0 -0 -0 -0 -0 0 0 0 0 0 0 0 0 0 0 -0 -0 -0 -0 -0 -0 -0 -0 -0 nan
nan -0 -1 -1 -1 -1 -1 -1 -2 -1 -0 -0 0 0 0 0 0 0 0 -0 -0 -0 -0 -0 -0 -0 -0 0 0 0 0 0 0 0 -0 -0 -0 -0 -0 -0 0 0 -0 -1 -1 -0 nan
nan -0 -0 -1 -1 -1 -1 -1 -2 -1 -0 -0 0 0 0 0 1 0 0 0 -0 0 -0 -0 0 0 -0 -0 0 -0 -0 -0 0 -0 0 -0 -0 -0 0 0 0 0 -0 -0 -0 -1 nan
nan -0 0 -0 -1 -1 -1 -1 -2 -1 -0 -0 -0 0 1 0 -0 -0 0 -0 -0 0 -0 -0 0 -0 -0 0 -0 -0 -0 -0 0 0 0 -0 0 -0 0 0 -0 -0 -0 -0 -0 0 nan
nan -0 -1 -0 -1 -1 -1 -1 -1 -1 -1 -0 0 0 0 0 -0 -0 -0 -0 0 0 -0 0 -0 0 0 0 -0 0 0 0 0 -0 0 0 -0 -0 -0 -1 -0 -0 -0 0 0 0 nan
nan -0 -0 -0 -1 -0 -1 -1 -1 -1 -1 -1 -0 -0 0 -0 -0 -0 0 0 -0 -0 -1 0 -0 0 0 -0 0 -0 0 1 0 -0 0 0 0 0 -0 -0 -0 0 0 -0 0 0 nan
nan 0 0 0 -0 -1 -1 -1 -1 -1 -1 -1 -1 -0 0 -0 0 0 0 0 -0 -0 -0 -0 -0 -0 -0 -0 0 0 0 0 0 0 0 0 0 -0 -0 0 0 0 0 0 0 0 nan
nan -0 -0 0 0 -1 -0 -1 -1 -1 -1 -0 -1 -0 1 1 0 0 -0 -0 -0 -0 0 0 -0 -0 -0 0 0 0 0 0 -0 0 -0 0 -0 -0 -0 -0 -0 0 0 -0 -0 -0 nan
nan -0 -0 -1 0 -0 -1 -1 -1 -1 -0 0 -2 1 0 1 1 0 0 -0 -0 -0 -0 -0 -0 -0 -0 0 0 0 0 -0 0 -0 -0 0 -0 -0 -0 0 -0 0 -0 -0 0 -0 nan
nan -0 -0 -0 -0 0 -1 -1 -1 -0 -0 -0 -1 2 1 0 1 1 0 -0 -0 -0 -0 -0 -0 -0 -0 0 0 0 -0 -0 0 -1 -0 0 -0 0 0 0 -0 0 -0 0 -0 -0 nan
nan -0 -0 -0 -0 -0 -0 -1 -1 -0 -1 -0 -0 0 1 0 -0 1 -0 -0 -0 -0 -0 -0 -0 0 0 0 0 0 -0 -0 -0 -0 0 -0 -0 0 -0 0 0 -0 -0 -0 -0 -0 nan
nan -0 -0 -0 -0 -0 -0 -0 -1 -1 -0 -1 -0 -0 -0 -0 -0 -0 -0 -0 -0 0 -0 -0 -0 0 -0 -0 -0 -0 -0 -0 -1 -0 -0 -0 -0 -0 -0 -0 -0 -0 -0 -0 -0 -0 nan
nan -0 -0 -0 -0 -0 -0 -0 -0 -1 -1 -0 0 -0 -1 -0 -0 -0 -0 -0 -0 -0 -0 0 -0 -0 -0 -0 -0 -1 -0 -1 -0 -0 -1 -0 0 -0 -0 -0 -0 -0 -0 -0 -0 0 nan
nan -0 -0 -0 -0 -0 -0 -0 -0 -0 -1 0 0 -0 -0 -0 -0 -0 -0 -0 -0 -0 -0 0 0 0 -0 0 -0 -0 -0 -0 -0 -0 -0 -0 0 -0 -0 -0 -0 -0 -1 0 0 -0 nan
nan -0 -0 -0 -0 -0 -0 -0 -0 -0 0 1 0 0 -0 -0 -0 -0 -0 -0 -0 -0 0 0 0 -0 -0 0 -0 -0 -0 -0 0 0 0 0 0 0 -0 -0 -0 -1 -1 0 -0 0 nan
nan -0 -0 -0 -0 -0 -0 0 -0 -0 1 1 0 0 -0 -0 -0 0 -0 -0 -0 -0 -0 -0 -0 -0 0 -0 -0 -0 -0 -0 0 -0 -0 0 0 -0 -1 -1 -1 -1 -0 -0 0 0 nan
nan -0 -0 -0 -0 -0 -0 -0 -0 -0 -0 -0 -0 0 -0 -0 0 -0 -0 -0 0 0 -0 -0 -0 -0 -0 -1 -1 -0 -0 0 0 -0 -0 -0 -0 -0 -0 0 -0 -1 -1 -0 0 -0 nan
nan -0 -0 -0 -0 -0 -0 -0 0 -0 0 -0 -2 0 0 -0 -0 -0 -0 0 0 -0 0 0 0 -0 -0 -0 0 -0 0 -0 -0 -0 -0 -0 -0 -0 -0 -0 0 0 -0 -0 -2 -2 nan
nan -0 -0 -0 -0 -0 -0 -0 -0 -0 0 0 -0 0 -0 0 0 -0 0 0 -0 0 -0 0 0 -0 -0 0 0 0 -0 -0 -0 0 0 -0 -0 0 -0 -0 -0 0 -0 -0 -1 -0 nan
nan -0 -0 -0 -0 -0 -0 -0 -0 -0 -0 -0 -0 0 0 -0 0 0 0 0 0 0 -0 0 -0 0 0 0 0 0 -0 0 0 0 -0 -0 0 0 -0 0 0 -0 0 0 -0 0 nan
nan -0 -0 -0 -0 -0 -0 -0 -0 -0 -1 -0 0 0 0 0 0 0 0 0 0 -0 0 0 -0 0 0 0 0 -0 -0 0 0 0 -0 0 -0 0 0 -0 -0 -0 -0 0 0 0 nan
nan 0 -0 -0 -0 -0 -0 -0 -0 -0 -0 -0 -0 0 0 0 0 0 0 0 0 -0 -0 0 -0 -0 0 0 0 -0 0 0 -0 -0 -0 -0 -0 -0 -0 -0 -0 -0 -0 0 0 -0 nan
nan nan nan nan nan nan nan nan nan nan nan nan nan nan nan nan nan nan nan nan nan nan nan nan nan nan nan nan nan nan nan nan nan nan nan nan nan nan nan nan nan nan nan nan nan nan nan
Wind_Speed
22 18 19 23 22 21 20 21 22 20 19 18 18 17 14 12 12 9 7 6 5 4 4 5 5 6 10 11 14 5 9 6 4 10 18 19 13 6 5 5 10 9 8 18 22 27 28
23 22 22 20 24 22 21 21 23 24 20 19 19 17 15 12 13 11 8 7 6 6 5 3 4 7 11 6 10 18 12 5 3 5 6 19 13 14 7 8 9 10 10 16 20 24 20
25 27 25 24 27 23 22 22 23 23 22 20 19 18 15 14 13 13 10 9 7 7 6 5 5 7 13 21 8 13 19 20 12 7 10 8 22 10 3 4 12 9 9 11 11 11 11
25 26 27 25 23 26 20 21 23 24 23 22 19 18 16 14 13 14 12 10 8 9 8 7 6 7 9 6 10 16 13 17 16 16 14 9 5 16 9 9 7 4 4 8 5 9 7
29 29 28 28 27 24 23 24 23 24 24 23 22 19 18 14 13 14 12 11 8 8 9 8 7 6 10 7 10 13 19 15 10 16 19 15 11 7 2 2 4 4 6 6 5 6 5
30 31 32 31 30 28 20 25 27 26 26 25 24 21 18 15 13 13 13 10 7 7 8 8 8 4 12 7 5 4 22 16 7 8 9 10 5 3 2 5 14 12 7 8 7 3 8
30 32 30 31 31 31 26 28 19 28 28 26 25 22 21 17 14 15 17 10 5 5 14 11 12 6 1 5 5 4 20 16 11 6 4 2 4 11 11 10 5 8 9 12 4 5 10
31 31 32 32 32 32 27 31 27 21 30 28 26 24 22 19 17 16 18 13 8 4 5 20 25 19 12 7 4 6 14 14 11 9 4 3 11 8 7 8 10 11 15 15 10 10 9
33 30 32 32 33 33 34 29 32 25 29 29 26 25 23 20 18 18 23 21 12 4 3 7 22 18 20 19 8 12 18 15 8 16 16 14 6 15 13 11 10 14 17 9 9 13 18
34 32 33 35 34 34 32 28 26 27 19 28 26 26 25 22 20 22 25 21 12 3 3 4 4 4 11 14 6 26 22 14 6 14 16 13 18 15 10 15 10 17 8 13 13 7 6
35 34 33 35 34 32 30 30 24 26 24 25 28 27 30 28 18 25 21 17 13 3 3 4 4 5 5 12 6 7 26 18 14 9 7 8 8 16 21 18 14 11 8 12 11 10 8
35 36 33 34 33 35 31 30 25 21 24 31 26 30 31 30 22 14 17 21 15 3 7 5 5 5 5 8 3 4 15 19 4 15 15 8 2 5 7 11 18 4 10 8 7 4 10
36 37 33 34 35 36 33 28 33 23 21 30 21 35 34 31 28 21 26 25 3 4 2 6 4 5 5 7 7 8 7 8 5 7 8 6 18 5 2 4 5 13 8 4 6 6 8
34 37 33 34 37 37 32 35 32 21 24 25 35 45 36 34 28 31 34 2 6 5 5 4 5 8 7 7 7 10 5 8 14 5 2 7 3 14 11 17 6 14 16 5 6 4 4
35 35 34 33 36 38 34 38 29 21 23 23 30 36 40 34 33 36 25 4 6 6 6 9 7 6 8 6 5 10 9 8 11 13 8 6 6 2 5 5 14 5 11 20 7 5 3
35 33 33 33 34 39 37 41 23 13 23 20 29 43 40 41 35 37 8 7 5 3 6 4 8 8 8 9 9 8 8 7 8 18 12 6 3 6 4 7 12 10 7 6 6 5 5
33 34 33 34 35 37 41 40 28 16 18 17 11 15 34 40 40 26 7 6 4 6 7 6 7 8 7 6 8 7 5 4 12 10 18 4 4 1 1 6 12 9 9 5 7 8 3
33 33 33 34 35 35 39 39 28 27 22 21 21 6 38 43 6 7 5 5 6 4 12 4 5 9 8 9 7 6 8 7 17 10 10 11 4 5 11 4 10 15 13 13 7 10 8
31 31 32 33 35 35 38 40 35 27 13 14 18 11 41 43 6 9 4 8 6 5 7 7 11 10 10 7 4 11 6 11 15 7 11 10 4 2 4 7 11 12 16 15 13 3 9
30 29 31 33 34 33 39 41 41 31 20 15 9 5 13 23 4 9 13 9 7 11 11 6 5 11 6 7 8 3 8 5 15 14 17 18 4 6 8 3 1 10 20 18 16 10 8
30 28 29 32 32 31 37 39 40 31 17 14 7 3 9 9 6 12 10 4 13 7 7 12 4 11 8 4 6 8 7 4 3 13 9 7 6 6 14 17 14 11 18 23 14 6 13
30 27 27 29 30 29 32 35 36 24 13 11 7 6 10 13 16 7 14 10 11 9 6 6 8 8 14 9 6 1 6 4 4 10 10 5 3 4 16 14 17 7 20 21 11 7 6
31 27 28 29 28 29 31 32 32 19 25 8 4 14 16 13 11 8 6 8 8 4 10 12 12 7 10 15 16 8 10 5 1 4 4 7 4 3 4 6 12 7 19 15 4 8 15
32 27 26 26 26 29 30 30 29 16 16 18 15 13 6 5 9 10 9 14 14 13 10 8 18 7 1 7 10 8 6 5 3 8 10 6 3 5 1 0 3 1 17 23 23 22 22
30 27 27 25 24 27 28 28 27 20 18 25 3 9 4 3 5 5 3 1 5 4 10 12 13 19 11 8 3 2 2 3 0 3 6 5 3 4 3 2 3 3 5 8 11 8 5
29 26 27 25 25 27 26 27 27 20 19 20 9 12 7 4 5 5 5 4 3 1 2 4 9 13 13 5 3 4 4 4 3 3 4 5 2 1 4 2 3 2 2 1 2 2 5
28 26 24 24 24 25 23 25 24 18 17 17 9 10 9 5 7 10 3 3 4 2 2 2 3 5 14 5 3 3 3 2 4 6 5 2 1 4 1 2 6 5 2 1 4 5 2
27 27 25 23 23 24 24 25 24 23 15 20 4 11 9 4 6 9 12 7 4 3 2 1 2 1 2 3 2 3 3 5 2 3 5 5 4 3 3 0 5 1 2 1 3 2 4
25 26 23 24 23 24 22 26 25 23 15 15 1 9 10 3 2 8 14 15 13 9 2 5 2 3 6 3 3 2 2 2 3 3 1 3 5 5 7 5 2 1 0 2 4 6 9
Wind_Direction
318 347 305 297 306 304 274 274 265 263 269 278 284 282 267 262 251 251 242 245 234 233 243 239 226 211 201 216 219 141 107 108 126 205 225 233 229 206 205 222 260 245 256 252 253 257 263
299 305 301 321 289 295 296 273 273 260 264 271 279 286 262 262 250 240 235 239 236 231 228 230 215 213 217 233 238 214 195 192 229 230 233 224 225 225 258 241 239 279 284 261 263 261 257
325 315 300 287 293 289 290 283 269 261 256 261 266 280 262 262 251 234 231 232 231 226 227 215 229 228 240 240 204 199 222 232 239 227 237 242 228 228 194 292 278 288 288 288 253 261 260
343 330 320 290 301 287 285 285 269 262 249 256 256 264 261 260 248 229 226 233 235 228 229 223 230 249 252 266 234 212 194 211 231 233 244 228 249 247 249 273 317 330 258 249 232 219 240
343 339 333 322 300 300 297 279 277 260 243 249 251 251 254 252 239 224 222 229 236 231 224 214 227 233 266 256 252 230 209 203 222 236 246 244 256 242 285 230 270 226 264 262 252 212 219
340 336 333 333 327 301 298 286 273 258 244 245 244 244 246 245 230 218 217 222 224 213 203 221 205 224 252 244 252 257 203 202 201 215 256 239 226 172 104 188 232 237 242 233 230 312 213
338 336 332 327 327 321 291 301 302 257 245 243 240 243 233 231 217 211 212 195 198 211 204 205 198 203 249 230 229 197 193 191 201 238 198 254 212 221 224 221 248 292 290 270 14 321 289
336 332 327 328 327 324 302 298 294 271 241 239 238 236 230 218 208 214 211 200 200 137 254 240 243 240 240 171 198 208 183 184 202 223 140 313 243 232 236 230 235 250 264 273 293 273 268
335 327 328 328 325 322 324 297 290 291 238 235 231 228 222 209 201 209 213 212 224 255 271 256 238 234 234 226 225 205 185 192 205 225 219 225 250 228 220 233 233 239 245 265 261 295 280
337 331 324 325 325 323 321 312 294 281 259 232 221 219 211 195 194 209 213 212 217 223 285 233 216 247 209 207 255 221 204 177 201 225 228 241 232 261 236 234 212 247 221 238 252 268 259
336 332 325 323 324 325 315 316 308 281 286 227 221 216 201 200 202 202 211 198 193 160 347 167 163 157 187 176 149 206 206 197 200 197 174 213 209 217 233 234 222 253 225 234 237 240 271
335 332 330 328 328 328 323 314 314 281 272 252 224 208 199 191 205 211 186 161 147 54 253 170 138 171 171 209 205 95 181 208 231 217 224 216 168 214 212 230 227 246 234 263 246 230 240
335 333 328 330 331 331 322 318 319 283 273 253 258 207 197 199 191 168 160 151 115 187 167 175 173 173 203 189 208 191 170 203 199 193 211 199 234 266 209 226 209 209 236 249 209 207 243
333 334 332 327 328 332 326 313 323 286 266 241 258 195 191 192 181 163 161 114 204 217 188 114 147 158 192 177 215 204 209 214 226 192 235 194 246 198 194 216 179 205 203 209 203 202 221
331 336 334 330 328 329 328 331 322 298 256 236 254 183 180 184 178 165 159 207 215 210 153 147 147 185 194 206 226 204 224 225 227 189 196 202 248 209 226 180 189 204 207 220 310 268 244
330 334 333 333 332 331 330 334 324 300 278 255 274 166 178 184 178 170 169 217 232 224 119 152 185 182 195 184 187 193 194 214 214 196 190 214 263 204 170 181 222 197 161 155 204 240 241
328 330 335 331 332 332 330 339 324 313 301 218 228 134 173 178 172 171 197 221 253 227 147 179 189 183 226 171 181 197 234 243 205 196 192 143 202 172 350 182 205 212 223 206 173 233 266
330 331 333 333 330 332 329 339 336 311 302 259 188 164 179 173 157 189 201 186 215 216 210 174 167 205 210 182 191 203 228 233 191 190 181 201 207 223 234 240 248 210 216 205 209 206 247
328 333 331 334 331 333 334 342 344 337 323 239 163 106 171 173 174 181 201 213 251 208 197 200 201 208 206 186 212 202 214 226 209 175 171 166 219 244 237 200 223 216 208 200 226 221 236
328 332 331 334 333 334 337 341 347 336 336 171 143 134 148 190 213 179 199 213 219 216 230 206 239 196 219 221 221 220 236 241 221 214 171 165 203 240 260 341 39 210 200 204 202 235 208
329 333 334 335 335 337 336 344 349 347 350 135 128 127 153 170 196 188 183 230 201 216 209 187 207 235 219 237 196 224 225 238 148 172 162 164 223 218 245 246 217 245 205 189 192 180 200
332 333 334 337 337 333 338 348 349 354 53 156 157 134 164 168 178 172 192 205 219 200 188 173 215 220 215 233 197 275 203 211 189 167 165 172 248 243 283 263 203 207 191 191 181 187 237
334 335 336 337 338 336 343 347 345 355 22 0 245 140 151 155 183 188 207 216 228 188 204 204 215 260 250 224 242 264 256 228 168 173 145 171 188 286 302 119 129 163 172 177 174 228 196
335 336 335 338 338 336 341 345 351 335 354 344 275 149 150 162 167 198 189 205 232 223 217 214 212 210 203 270 242 289 272 319 249 183 184 181 185 233 304 350 58 67 178 181 196 205 216
333 336 337 337 339 335 342 346 347 336 359 336 215 178 133 121 179 168 218 306 234 280 230 227 203 210 266 264 169 169 343 285 259 172 181 168 165 293 20 299 280 97 94 160 194 199 220
333 335 337 340 339 333 340 348 347 336 350 344 180 162 132 122 194 142 166 218 197 201 245 232 267 231 198 190 178 170 192 216 223 167 213 185 170 316 356 38 30 262 340 87 150 290 172
333 333 335 335 336 333 338 348 349 331 322 359 177 169 153 147 169 167 184 169 166 151 239 272 257 200 185 174 160 154 195 194 187 183 165 130 171 207 348 317 292 258 292 41 120 237 159
331 334 332 335 335 331 336 342 345 340 335 356 213 189 179 144 169 212 231 187 166 176 189 207 241 184 152 155 133 180 187 208 176 230 178 153 159 178 154 173 286 250 359 176 210 85 166
329 325 329 334 333 331 335 341 347 340 338 4 227 187 190 163 184 227 233 245 255 229 193 210 284 213 204 155 184 138 160 148 186 231 247 185 182 170 181 212 242 138 15 113 157 134 134
Height
1496 1493 1491 1490 1489 1488 1486 1486 1486 1486 1486 1485 1484 1483 1482 1481 1481 1482 1481 1482 1481 1482 1483 1483 1484 1487 1488 1488 1485 1487 1486 1487 1489 1491 1492 1493 1495 1495 1495 1492 1491 1488 1486 1484 1485 1485 1485
1492 1490 1486 1484 1483 1482 1481 1480 1481 1481 1481 1481 1481 1479 1479 1478 1478 1479 1479 1479 1480 1481 1481 1482 1483 1484 1485 1486 1480 1483 1485 1486 1488 1490 1490 1491 1490 1491 1492 1490 1490 1482 1483 1482 1482 1482 1482
1488 1485 1482 1479 1478 1475 1475 1474 1474 1475 1476 1476 1476 1476 1475 1475 1476 1476 1476 1477 1478 1479 1480 1480 1482 1482 1482 1477 1478 1478 1481 1483 1486 1487 1489 1488 1488 1490 1489 1488 1485 1483 1481 1478 1477 1478 1478
1485 1482 1478 1475 1472 1470 1468 1468 1468 1469 1471 1471 1472 1472 1472 1472 1473 1473 1474 1475 1476 1477 1477 1479 1480 1481 1476 1473 1474 1475 1478 1479 1482 1485 1487 1487 1487 1488 1487 1486 1484 1484 1480 1482 1471 1473 1474
1482 1478 1474 1470 1467 1464 1463 1462 1462 1462 1464 1466 1466 1468 1468 1469 1469 1470 1471 1473 1474 1475 1476 1477 1478 1479 1473 1470 1470 1471 1474 1477 1480 1482 1483 1485 1485 1486 1486 1487 1487 1485 1484 1478 1473 1468 1471
1480 1476 1470 1466 1462 1458 1455 1455 1455 1455 1457 1459 1460 1462 1464 1465 1466 1468 1470 1471 1472 1473 1474 1476 1476 1479 1470 1468 1467 1467 1471 1475 1478 1479 1481 1482 1483 1484 1485 1486 1479 1477 1478 1473 1472 1470 1467
1478 1473 1468 1462 1458 1453 1450 1447 1445 1447 1449 1452 1454 1456 1458 1460 1462 1465 1467 1470 1474 1473 1469 1465 1465 1464 1465 1466 1467 1466 1468 1473 1475 1479 1481 1481 1484 1480 1482 1481 1479 1479 1477 1473 1474 1471 1472
1475 1470 1464 1459 1454 1449 1444 1441 1438 1436 1439 1444 1448 1450 1452 1454 1458 1460 1463 1464 1463 1465 1464 1461 1461 1462 1464 1465 1466 1466 1467 1473 1473 1476 1480 1485 1479 1478 1478 1479 1480 1480 1478 1474 1474 1472 1470
1471 1466 1460 1455 1449 1444 1439 1435 1432 1428 1430 1435 1440 1443 1446 1450 1454 1457 1457 1460 1462 1463 1463 1456 1454 1455 1458 1464 1462 1463 1465 1467 1469 1472 1474 1480 1473 1471 1474 1475 1477 1475 1476 1479 1481 1474 1462
1467 1462 1457 1450 1444 1438 1433 1428 1424 1422 1421 1426 1431 1436 1440 1444 1451 1451 1453 1457 1461 1464 1465 1453 1451 1450 1453 1458 1458 1458 1460 1464 1469 1468 1474 1474 1472 1470 1470 1471 1475 1473 1471 1472 1473 1476 1473
1463 1457 1451 1444 1439 1433 1427 1423 1419 1419 1413 1418 1425 1429 1432 1438 1440 1444 1448 1455 1460 1465 1488 1448 1449 1450 1451 1454 1452 1452 1455 1459 1462 1465 1470 1466 1464 1465 1466 1465 1466 1466 1467 1468 1469 1469 1472
1459 1452 1446 1439 1433 1427 1421 1417 1412 1410 1410 1409 1413 1420 1426 1431 1436 1441 1448 1454 1460 1474 1474 1445 1445 1448 1450 1451 1449 1451 1454 1458 1457 1461 1460 1460 1459 1459 1457 1458 1461 1463 1466 1465 1464 1466 1463
1455 1448 1441 1435 1430 1422 1416 1411 1407 1403 1404 1403 1401 1412 1418 1426 1429 1438 1445 1453 1463 1470 1437 1440 1441 1445 1447 1446 1447 1447 1451 1452 1454 1455 1456 1458 1458 1457 1455 1457 1457 1462 1468 1466 1467 1467 1447
1450 1444 1437 1432 1425 1418 1411 1407 1401 1398 1397 1396 1400 1397 1411 1420 1427 1435 1442 1452 1457 1431 1433 1432 1436 1443 1443 1439 1443 1442 1445 1447 1450 1453 1450 1449 1454 1450 1446 1447 1450 1451 1454 1457 1461 1460 1448
1445 1439 1433 1427 1421 1413 1406 1400 1394 1393 1392 1392 1396 1390 1403 1416 1424 1431 1440 1445 1438 1425 1421 1428 1436 1438 1437 1438 1439 1440 1442 1443 1440 1445 1448 1447 1445 1435 1435 1439 1445 1448 1452 1442 1449 1440 1442
1440 1434 1429 1422 1416 1408 1401 1393 1388 1389 1391 1388 1391 1380 1400 1412 1422 1428 1436 1430 1426 1418 1419 1423 1426 1429 1430 1430 1437 1441 1437 1428 1431 1431 1436 1439 1449 1432 1432 1436 1438 1436 1435 1451 1453 1456 1437
1436 1430 1425 1419 1412 1405 1397 1389 1384 1381 1380 1385 1383 1386 1394 1409 1418 1427 1424 1427 1419 1417 1416 1420 1420 1423 1424 1427 1431 1433 1430 1422 1422 1422 1429 1434 1439 1437 1433 1429 1430 1438 1435 1433 1434 1437 1430
1432 1426 1421 1414 1409 1404 1396 1387 1382 1379 1378 1378 1376 1379 1390 1402 1411 1417 1415 1415 1415 1413 1414 1416 1418 1419 1420 1422 1427 1432 1426 1418 1411 1415 1427 1427 1430 1428 1422 1420 1423 1424 1424 1425 1426 1429 1424
1428 1423 1417 1411 1405 1399 1392 1384 1376 1366 1364 1367 1372 1375 1389 1397 1400 1407 1409 1411 1411 1410 1410 1411 1412 1414 1412 1414 1421 1418 1414 1406 1406 1412 1415 1422 1420 1420 1416 1419 1420 1417 1418 1420 1421 1417 1423
1423 1419 1413 1408 1400 1394 1389 1378 1370 1364 1359 1361 1364 1372 1388 1394 1397 1400 1405 1406 1407 1404 1406 1406 1407 1407 1408 1407 1409 1407 1409 1401 1400 1403 1408 1413 1414 1412 1404 1402 1408 1406 1405 1410 1421 1418 1413
1419 1416 1411 1405 1397 1391 1383 1377 1368 1363 1353 1354 1358 1369 1375 1385 1393 1396 1400 1398 1399 1400 1402 1403 1406 1405 1403 1405 1405 1405 1402 1399 1397 1400 1407 1410 1410 1411 1406 1402 1405 1403 1393 1401 1409 1405 1406
1416 1412 1408 1405 1399 1391 1386 1379 1371 1365 1355 1359 1362 1364 1375 1379 1387 1392 1395 1392 1392 1393 1395 1397 1400 1397 1399 1399 1395 1395 1395 1395 1394 1401 1406 1408 1406 1406 1391 1371 1375 1386 1386 1393 1397 1407 1412
1413 1408 1403 1399 1395 1389 1383 1379 1374 1365 1364 1361 1363 1363 1370 1377 1383 1389 1387 1388 1389 1390 1391 1392 1394 1396 1394 1395 1393 1393 1392 1391 1391 1395 1402 1405 1404 1398 1376 1369 1372 1379 1378 1384 1400 1407 1410
1411 1406 1402 1398 1393 1388 1383 1378 1372 1366 1368 1369 1363 1364 1368 1374 1378 1381 1381 1385 1387 1386 1386 1387 1389 1394 1392 1390 1390 1391 1388 1387 1388 1388 1392 1398 1399 1397 1382 1376 1379 1362 1364 1374 1387 1391 1394
1408 1403 1400 1396 1392 1386 1381 1376 1371 1367 1364 1361 1358 1364 1365 1371 1373 1376 1378 1381 1380 1380 1382 1385 1384 1385 1388 1389 1389 1389 1390 1389 1387 1386 1388 1390 1393 1394 1388 1384 1371 1364 1369 1375 1377 1379 1376
1405 1400 1396 1392 1390 1383 1379 1375 1369 1365 1363 1362 1358 1363 1365 1370 1372 1372 1377 1378 1379 1380 1380 1380 1379 1379 1383 1386 1385 1386 1388 1385 1386 1386 1385 1387 1388 1391 1392 1392 1376 1367 1365 1365 1365 1380 1371
1402 1397 1395 1392 1388 1384 1380 1375 1369 1367 1363 1358 1359 1361 1366 1369 1371 1372 1375 1375 1376 1378 1378 1377 1375 1375 1377 1379 1380 1385 1387 1384 1388 1385 1387 1388 1389 1395 1396 1393 1384 1366 1364 1365 1375 1379 1366
1399 1394 1389 1387 1384 1380 1376 1373 1369 1363 1359 1358 1357 1361 1365 1367 1369 1370 1370 1372 1374 1375 1376 1376 1375 1372 1373 1374 1377 1378 1377 1386 1382 1380 1379 1383 1385 1387 1389 1393 1396 1364 1364 1366 1368 1366 1366
1396 1391 1387 1382 1379 1375 1372 1368 1364 1361 1359 1359 1358 1360 1363 1366 1368 1368 1369 1369 1371 1372 1373 1373 1371 1369 1367 1370 1373 1374 1377 1383 1374 1382 1374 1379 1374 1376 1383 1380 1367 1366 1366 1366 1366 1367 1369